Location: Mohawk View
(42.7837°N, 73.7885°W)
Time: 08:05:54
(UTC+00:00)

Cosmos 1626 Rocket - Pass Details

Date: 17 June 2021
Orbit: 602 x 632 km, 82.5° (Epoch: 28 July)

Event Time Altitude Azimuth Distance (km) Brightness Sun altitude
Exits shadow 05:11:53 58° 264° (W) 737 3.8 -23.7°
Maximum altitude 05:12:07 59° 280° (W) 730 3.8 -23.7°
Drops below altitude 10° 05:16:32 10° 1° (N) 2,012 7.3 -23.7°
Sets 05:18:48 0° 5° (N) 2,920 8.5 -23.6°
